This demonstration page uses our WeatherBlox Daily Observations layout. Learn more.

Left ArrowRight Arrow

Hourly Observations for September 13, 2020

Temp ( °F °C ) Dew Point ( °F °C ) Humidity (%) Winds ( mph kmh ) Pressure ( in mb ) Visibility ( mi km ) Precip ( " mm )
12:15 am 00:15 Clear 54 12.1 50 10.2 88 88 N N/A 30.05 1018 10 16 N/A
12:35 am 00:35 Clear 53 11.9 51 10.4 91 91 N N/A 30.07 1018 10 16 N/A
12:55 am 00:55 Clear 52 11.2 49 9.5 89 89 N N/A 30.07 1018 10 16 N/A
1:15 am 01:15 Clear 52 11 49 9.2 89 89 N N/A 30.08 1019 10 16 N/A
1:35 am 01:35 Clear 50 10.1 48 8.8 92 92 N N/A 30.09 1019 10 16 N/A
1:55 am 01:55 Clear 52 11 50 9.9 93 93 N N/A 30.10 1019 10 16 N/A
2:15 am 02:15 Clear 51 10.5 48 9.1 91 91 N N/A 30.10 1019 10 16 N/A
2:35 am 02:35 Clear 49 9.3 47 8.2 93 93 N N/A 30.11 1020 10 16 N/A
2:55 am 02:55 Clear 49 9.7 48 8.9 95 95 N N/A 30.12 1020 10 16 N/A
3:15 am 03:15 Clear 48 8.9 46 8 94 94 N N/A 30.11 1020 10 16 N/A
3:35 am 03:35 Clear 48 9.1 47 8.3 95 95 N N/A 30.12 1020 10 16 N/A
3:55 am 03:55 Clear 49 9.7 48 8.7 94 94 N N/A 30.12 1020 10 16 N/A
4:15 am 04:15 Clear 48 9 46 7.9 93 93 W 3 6 30.12 1020 10 16 N/A
4:35 am 04:35 Clear 49 9.5 47 8.5 94 94 N N/A 30.14 1021 10 16 N/A
4:55 am 04:55 Clear 51 10.4 48 9 91 91 N N/A 30.14 1021 10 16 N/A
5:15 am 05:15 Clear 50 10.2 47 8.6 90 90 W 3 6 30.14 1021 10 16 N/A
5:35 am 05:35 Clear 53 11.6 48 8.9 84 84 N N/A 30.13 1020 10 16 N/A
5:55 am 05:55 Clear 53 11.4 48 8.9 85 85 N N/A 30.12 1020 10 16 N/A
6:15 am 06:15 Clear 51 10.4 47 8.5 88 88 N N/A 30.13 1020 10 16 N/A
6:35 am 06:35 Clear 53 11.5 48 9 85 85 W 3 6 30.14 1021 10 16 N/A
6:55 am 06:55 Clear 51 10.3 47 8.1 86 86 N N/A 30.14 1021 10 16 N/A
7:15 am 07:15 Clear 51 10.3 47 8.5 89 89 W 3 6 30.16 1021 10 16 N/A
7:35 am 07:35 Sunny 52 11.2 48 8.8 85 85 W 6 9 30.16 1021 10 16 N/A
7:55 am 07:55 Sunny 53 11.9 49 9.4 85 85 W 3 6 30.17 1022 10 16 N/A
8:15 am 08:15 Sunny 55 13 51 10.7 86 86 W 5 7 30.16 1021 10 16 N/A
8:30 am 08:30 Sunny 58 14.4 52 11.1 81 81 N N/A 30.14 1021 10 16 N/A
8:55 am 08:55 Sunny 61 15.9 53 11.6 76 76 N N/A 30.14 1021 10 16 N/A
9:15 am 09:15 Sunny 63 17.4 53 11.8 70 70 W 6 9 30.12 1020 10 16 N/A
9:35 am 09:35 Sunny 65 18.5 54 12.1 66 66 WNW 7 11 30.12 1020 10 16 N/A
9:55 am 09:55 Sunny 68 20 55 12.9 64 64 WNW 5 7 30.11 1020 10 16 N/A
10:15 am 10:15 Sunny 70 21.3 55 12.5 57 57 W 7 11 30.11 1019 10 16 N/A
10:35 am 10:35 Sunny 72 22.1 54 12 53 53 W 7 11 30.10 1019 10 16 N/A
10:55 am 10:55 Sunny 74 23.2 54 12.1 50 50 W 6 9 30.09 1019 10 16 N/A
11:15 am 11:15 Sunny 75 23.9 53 11.9 47 47 WSW 7 11 30.08 1019 10 16 N/A
11:35 am 11:35 Sunny 76 24.4 53 11.8 45 45 W 6 9 30.07 1018 10 16 N/A
11:55 am 11:55 Sunny 77 25 53 11.7 43 43 WSW 7 11 30.07 1018 10 16 N/A
12:15 pm 12:15 Sunny 78 25.3 51 10.3 39 39 W 5 7 30.06 1018 10 16 N/A
12:35 pm 12:35 Sunny 79 26.1 51 10.5 38 38 WSW 5 7 30.05 1018 10 16 N/A
12:55 pm 12:55 Sunny 79 26.1 50 9.8 36 36 SW 3 6 30.05 1018 10 16 N/A
1:15 pm 13:15 Sunny 80 26.4 49 9.6 35 35 W 7 11 30.05 1018 10 16 N/A
1:35 pm 13:35 Sunny 81 27.2 49 9.2 32 32 W 3 6 30.03 1017 10 16 N/A
1:55 pm 13:55 Sunny 82 27.5 46 7.8 29 29 W 5 7 30.03 1017 10 16 N/A
2:15 pm 14:15 Sunny 82 27.7 45 7.4 28 28 SSW 7 11 30.03 1017 10 16 N/A
2:35 pm 14:35 Sunny 83 28.1 47 8.6 29 29 WNW 5 7 30.01 1016 10 16 N/A
2:55 pm 14:55 Sunny 83 28.2 44 6.8 26 26 SW 6 9 30.01 1016 10 16 N/A
3:15 pm 15:15 Sunny 83 28.2 45 7.1 26 26 N N/A 30.01 1016 10 16 N/A
3:35 pm 15:35 Sunny 83 28.6 45 7.2 26 26 W 6 9 30.00 1016 10 16 N/A
3:55 pm 15:55 Sunny 85 29.2 44 6.9 24 24 SSW 5 7 30.00 1016 10 16 N/A
4:15 pm 16:15 Sunny 84 29 42 5.8 23 23 N N/A 30.00 1016 10 16 N/A
4:35 pm 16:35 Sunny 84 29 45 7.3 25 25 N N/A 29.99 1016 10 16 N/A
4:55 pm 16:55 Sunny 85 29.3 45 7.4 25 25 SSW 5 7 29.99 1016 10 16 N/A
5:15 pm 17:15 Sunny 84 29.1 45 7.1 25 25 SSW 3 6 29.98 1015 10 16 N/A
5:35 pm 17:35 Sunny 84 29.1 44 6.8 24 24 S 6 9 29.98 1015 10 16 N/A
5:55 pm 17:55 Sunny 84 28.9 43 5.9 23 23 SE 3 6 29.99 1015 10 16 N/A
6:15 pm 18:15 Sunny 84 28.7 43 5.9 24 24 N N/A 30.00 1016 10 16 N/A
6:35 pm 18:35 Sunny 83 28.6 44 6.8 25 25 SE 3 6 30.00 1016 10 16 N/A
6:55 pm 18:55 Sunny 82 27.7 49 9.5 32 32 SE 3 6 30.00 1016 10 16 N/A
7:15 pm 19:15 Sunny 79 26 50 10.1 37 37 SE 5 7 30.03 1017 10 16 N/A
7:35 pm 19:35 Sunny 74 23.5 53 11.9 48 48 SE 5 7 30.05 1018 10 16 N/A
7:55 pm 19:55 Clear 69 20.4 55 13 63 63 ESE 7 11 30.07 1018 10 16 N/A
8:15 pm 20:15 Clear 65 18.1 55 12.5 70 70 ESE 6 9 30.10 1019 10 16 N/A
8:35 pm 20:35 Clear 64 18 54 12 68 68 SE 6 9 30.10 1019 10 16 N/A
8:55 pm 20:55 Clear 64 17.5 54 12 70 70 SE 6 9 30.13 1020 10 16 N/A
9:15 pm 21:15 Clear 63 17.1 53 11.5 70 70 SSE 5 7 30.14 1021 10 16 N/A
9:35 pm 21:35 Clear 64 17.7 52 11.1 65 65 SSE 5 7 30.15 1021 10 16 N/A
9:55 pm 21:55 Clear 64 17.9 51 10.5 62 62 SSE 7 11 30.16 1021 10 16 N/A
10:15 pm 22:15 Clear 64 17.6 51 10.6 64 64 SSE 5 7 30.15 1021 10 16 N/A
10:35 pm 22:35 Clear 63 17.1 51 10.6 66 66 S 5 7 30.16 1021 10 16 N/A
10:55 pm 22:55 Clear 63 17 52 11 68 68 S 6 9 30.16 1021 10 16 N/A
11:15 pm 23:15 Clear 62 16.7 52 11.2 70 70 S 6 9 30.17 1022 10 16 N/A
11:35 pm 23:35 Clear 60 15.8 52 11.1 74 74 SSE 5 7 30.18 1022 10 16 N/A
11:55 pm 23:55 Clear 61 16 52 11.2 73 73 S 7 11 30.18 1022 10 16 N/A

Powered by AerisWeather